Regional Weather Roundup
Issued by NWS

Home | Current Version | Previous Version | Text Only | Print | Product List | Glossary Off
Versions: 1 2 3 4 5 6 7 8 9 10 11 12 13 14 15 16 17 18 19 20 21 22 23 24 25 26 27 28 29 30 31 32 33 34 35 36 37 38 39 40 41 42 43 44 45 46 47 48 49 50

000
ASUS43 KBIS 261610
RWRND

NORTH DAKOTA REGIONAL WEATHER ROUNDUP
NATIONAL WEATHER SERVICE BISMARCK ND
1100 AM CDT SUN APR 26 2015

NOTE: "FAIR" INDICATES FEW OR NO CLOUDS BELOW 12,000 FEET WITH NO
SIGNIFICANT WEATHER AND/OR OBSTRUCTIONS TO VISIBILITY.


NDZ001>003-009>011-017-261700-
NORTHWEST NORTH DAKOTA

CITY           SKY/WX    TMP DP  RH WIND       PRES   REMARKS
WILLISTON      CLOUDY    45  35  68 NW8       30.08S
MINOT          CLOUDY    45  41  86 NW9       30.05R
MINOT AFB      CLOUDY    45  45 100 NW13      30.05R
$$

NDZ018>021-031>035-040>046-261700-
SOUTHWEST NORTH DAKOTA

CITY           SKY/WX    TMP DP  RH WIND       PRES   REMARKS
BISMARCK       CLOUDY    49  46  90 SE3       30.07R FOG
DICKINSON      CLOUDY    44  39  82 N8        30.04R
GARRISON         N/A     44  41  89 NW9       30.06R
HETTINGER ARPT RAIN      43  41  93 N13       30.04R FOG
$$

NDZ004>008-012>016-024-026-027-054-261700-
NORTHEAST NORTH DAKOTA

CITY           SKY/WX    TMP DP  RH WIND       PRES   REMARKS
GRAND FORKS    MOSUNNY   58  19  22 S14       30.13R
GRND FRKS AFB  MOSUNNY   58  23  26 SW8       30.13R
DEVILS LAKE    CLOUDY    54  39  58 S10       30.09R
$$

NDZ022-023-025-028>030-036>039-047>053-261700-
SOUTHEAST NORTH DAKOTA

CITY           SKY/WX    TMP DP  RH WIND       PRES   REMARKS
FARGO          SUNNY     57   6  13 SE7       30.13R
JAMESTOWN      MOSUNNY   59  39  47 S9        30.08R
$$



USA.gov is the U.S. government's official web portal to all federal, state and local government web resources and services.